Weather History for Luverne, MN

Change the Weather History Date:

Monday, April 14, 2014

  Actual Average (KFSD) Record (KFSD)
Temperature  
Mean Temperature 32 °F 46 °F  
Max Temperature 39 °F 58 °F 91 °F (1954)
Min Temperature 26 °F 34 °F 11 °F (1928)
Degree Days  
Heating Degree Days 32 19  
Month to date heating degree days 310  
Since 1 July heating degree days 7155  
Cooling Degree Days 0 0  
Month to date cooling degree days 0  
Year to date cooling degree days 0  
Moisture  
Dew Point 12 °F    
Average Humidity 47    
Maximum Humidity 74    
Minimum Humidity 22    
Precipitation  
Precipitation 0.00 in 0.10 in 1.45 in (1919)
Month to date precipitation 1.33  
Year to date precipitation 4.25  
Snow  
Snow 0.00 in 0.20 in 2.40 in (1983)
Month to date snowfall 2.7  
Since 1 July snowfall 42.6  
Snow Depth -    
Sea Level Pressure  
Sea Level Pressure 30.12 in    
Wind  
Wind Speed 18 mph (North)    
Max Wind Speed 29 mph    
Max Gust Speed 37 mph    
Visibility 10 miles    
Events      
T = Trace of Precipitation, MM = Missing Value Source: NWS Daily Summary

Daily Weather History Graph

Daily Weather History Graph

Search for Another Location

Airport:

Trip Planner

Search our weather history database for the weather conditions in past years. The results will help you decide how hot, cold, wet, or windy it might be!

Date:

Astronomy

Apr. 14, 2014 Rise Set
Actual Time 6:43 AM CDT 8:07 PM CDT
Civil Twilight 6:14 AM CDT 8:37 PM CDT
Nautical Twilight 5:38 AM CDT 9:13 PM CDT
Astronomical Twilight 5:00 AM CDT 9:51 PM CDT
Moon 7:46 PM CDT (4/14) 6:17 AM CDT (4/14)
Length of Visible Light 14h 22m
Length of Day
13h 23m
Full, 100% of the Moon is Illuminated
Apr 14
Full
Apr 15
Full
Apr 22
Last Quarter
Apr 29
New
May 6
First Quarter

Hourly Weather History & Observations

Time (CDT) Temp. Windchill Dew Point Humidity Pressure Visibility Wind Dir Wind Speed Gust Speed Precip Events Conditions
12:15 AM 30.2 °F 17.1 °F 17.6 °F 60% 30.04 in 10.0 mi North 21.9 mph 36.8 mph N/A   Clear
12:35 AM 30.2 °F 16.5 °F 17.6 °F 60% 30.04 in 10.0 mi North 24.2 mph 29.9 mph N/A   Clear
12:54 AM 30.2 °F 16.8 °F 17.6 °F 60% 30.05 in 10.0 mi North 23.0 mph 35.7 mph N/A   Clear
1:15 AM 28.4 °F 14.1 °F 14.0 °F 55% 30.05 in 10.0 mi North 24.2 mph 35.7 mph N/A   Clear
1:35 AM 28.4 °F 13.0 °F 14.0 °F 55% 30.05 in 10.0 mi North 28.8 mph 36.8 mph N/A   Clear
1:54 AM 28.4 °F 14.4 °F 14.0 °F 55% 30.05 in 10.0 mi North 23.0 mph 36.8 mph N/A   Clear
2:15 AM 28.4 °F 14.4 °F 14.0 °F 55% 30.04 in 10.0 mi North 23.0 mph 32.2 mph N/A   Clear
2:35 AM 28.4 °F 14.7 °F 14.0 °F 55% 30.04 in 10.0 mi North 21.9 mph 32.2 mph N/A   Clear
2:54 AM 26.6 °F 13.4 °F 15.8 °F 64% 30.04 in 10.0 mi North 18.4 mph 31.1 mph N/A   Clear
3:15 AM 26.6 °F 13.1 °F 15.8 °F 64% 30.04 in 10.0 mi North 19.6 mph 27.6 mph N/A   Clear
3:35 AM 26.6 °F 12.7 °F 15.8 °F 64% 30.03 in 10.0 mi North 20.7 mph 31.1 mph N/A   Clear
3:55 AM 26.6 °F 12.4 °F 15.8 °F 64% 30.04 in 10.0 mi North 21.9 mph 28.8 mph N/A   Clear
4:14 AM 26.6 °F 13.1 °F 15.8 °F 64% 30.05 in 10.0 mi North 19.6 mph 27.6 mph N/A   Clear
4:35 AM 26.6 °F 13.1 °F 15.8 °F 64% 30.07 in 10.0 mi North 19.6 mph 27.6 mph N/A   Clear
4:55 AM 26.6 °F 13.1 °F 15.8 °F 64% 30.07 in 10.0 mi North 19.6 mph 26.5 mph N/A   Clear
5:15 AM 26.6 °F 13.4 °F 15.8 °F 64% 30.08 in 10.0 mi North 18.4 mph 27.6 mph N/A   Clear
5:35 AM 26.6 °F 12.4 °F 15.8 °F 64% 30.09 in 10.0 mi North 21.9 mph 27.6 mph N/A   Clear
5:55 AM 26.6 °F 13.1 °F 15.8 °F 64% 30.09 in 10.0 mi North 19.6 mph 26.5 mph N/A   Clear
6:15 AM 26.6 °F 12.4 °F 15.8 °F 64% 30.09 in 10.0 mi North 21.9 mph 27.6 mph N/A   Clear
6:35 AM 26.6 °F 13.1 °F 15.8 °F 64% 30.09 in 10.0 mi North 19.6 mph 26.5 mph N/A   Clear
6:55 AM 26.6 °F 13.8 °F 14.0 °F 59% 30.11 in 10.0 mi NNW 17.3 mph 24.2 mph N/A   Clear
7:15 AM 26.6 °F 13.8 °F 14.0 °F 59% 30.12 in 10.0 mi North 17.3 mph 24.2 mph N/A   Clear
7:35 AM 26.6 °F 14.3 °F 12.2 °F 55% 30.12 in 10.0 mi North 16.1 mph 23.0 mph N/A   Clear
7:55 AM 26.6 °F 14.3 °F 12.2 °F 55% 30.13 in 10.0 mi North 16.1 mph 24.2 mph N/A   Clear
8:15 AM 26.6 °F 13.4 °F 10.4 °F 51% 30.14 in 10.0 mi North 18.4 mph 24.2 mph N/A   Clear
8:35 AM 28.4 °F 15.4 °F 10.4 °F 47% 30.14 in 10.0 mi North 19.6 mph 25.3 mph N/A   Clear
8:55 AM 28.4 °F 16.6 °F 10.4 °F 47% 30.14 in 10.0 mi North 16.1 mph 21.9 mph N/A   Clear
9:15 AM 28.4 °F 16.6 °F 10.4 °F 47% 30.14 in 10.0 mi North 16.1 mph 21.9 mph N/A   Clear
9:35 AM 30.2 °F 19.3 °F 12.2 °F 47% 30.15 in 10.0 mi North 15.0 mph 18.4 mph N/A   Clear
9:54 AM 32.0 °F 22.5 °F 10.4 °F 41% 30.15 in 10.0 mi North 12.7 mph - N/A   Clear
10:15 AM 32.0 °F 21.2 °F 6.8 °F 35% 30.15 in 10.0 mi NNE 16.1 mph 24.2 mph N/A   Clear
10:35 AM 32.0 °F 20.5 °F 5.0 °F 32% 30.16 in 10.0 mi NNE 18.4 mph 25.3 mph N/A   Clear
10:55 AM 33.8 °F 23.5 °F 5.0 °F 30% 30.17 in 10.0 mi North 16.1 mph 21.9 mph N/A   Clear
11:15 AM 33.8 °F 23.2 °F 5.0 °F 30% 30.17 in 10.0 mi North 17.3 mph 23.0 mph N/A   Clear
11:35 AM 33.8 °F 24.8 °F 3.2 °F 28% 30.17 in 10.0 mi North 12.7 mph - N/A   Clear
11:55 AM 35.6 °F 25.2 °F 3.2 °F 26% 30.17 in 10.0 mi NNW 18.4 mph 24.2 mph N/A   Clear
12:15 PM 35.6 °F 26.6 °F 3.2 °F 26% 30.17 in 10.0 mi North 13.8 mph 21.9 mph N/A   Clear
12:35 PM 35.6 °F 26.2 °F 3.2 °F 26% 30.16 in 10.0 mi North 15.0 mph 24.2 mph N/A   Clear
12:54 PM 35.6 °F 27.1 °F 1.4 °F 24% 30.15 in 10.0 mi North 12.7 mph 21.9 mph N/A   Scattered Clouds
1:15 PM 37.4 °F 28.9 °F 1.4 °F 22% 30.15 in 10.0 mi North 13.8 mph 24.2 mph N/A   Scattered Clouds
1:35 PM 37.4 °F 28.5 °F 3.2 °F 24% 30.14 in 10.0 mi North 15.0 mph 23.0 mph N/A   Clear
1:54 PM 37.4 °F 29.8 °F 3.2 °F 24% 30.14 in 10.0 mi NNW 11.5 mph 25.3 mph N/A   Clear
2:15 PM 39.2 °F 30.5 °F 3.2 °F 22% 30.14 in 10.0 mi NNE 16.1 mph 21.9 mph N/A   Scattered Clouds
2:35 PM 37.4 °F 28.9 °F 3.2 °F 24% 30.14 in 10.0 mi North 13.8 mph 25.3 mph N/A   Scattered Clouds
2:54 PM 37.4 °F 28.5 °F 5.0 °F 26% 30.13 in 10.0 mi North 15.0 mph 21.9 mph N/A   Mostly Cloudy
3:15 PM 37.4 °F 28.2 °F 5.0 °F 26% 30.13 in 10.0 mi North 16.1 mph 24.2 mph N/A   Mostly Cloudy
3:35 PM 37.4 °F 28.9 °F 5.0 °F 26% 30.13 in 10.0 mi North 13.8 mph 20.7 mph N/A   Mostly Cloudy
3:54 PM 37.4 °F 28.2 °F 5.0 °F 26% 30.12 in 10.0 mi North 16.1 mph 24.2 mph N/A   Mostly Cloudy
4:15 PM 37.4 °F 29.3 °F 6.8 °F 28% 30.12 in 10.0 mi North 12.7 mph 20.7 mph N/A   Mostly Cloudy
4:35 PM 37.4 °F 29.3 °F 6.8 °F 28% 30.11 in 10.0 mi North 12.7 mph 18.4 mph N/A   Mostly Cloudy
4:55 PM 35.6 °F 27.1 °F 8.6 °F 33% 30.12 in 10.0 mi NNW 12.7 mph 23.0 mph N/A   Mostly Cloudy
5:15 PM 35.6 °F 25.5 °F 8.6 °F 33% 30.12 in 10.0 mi NNW 17.3 mph 23.0 mph N/A   Mostly Cloudy
5:35 PM 35.6 °F 28.6 °F 10.4 °F 35% 30.12 in 10.0 mi NW 9.2 mph 17.3 mph N/A   Mostly Cloudy
5:55 PM 35.6 °F 27.5 °F 10.4 °F 35% 30.12 in 10.0 mi North 11.5 mph - N/A   Mostly Cloudy
6:15 PM 35.6 °F 27.1 °F 10.4 °F 35% 30.12 in 10.0 mi North 12.7 mph 20.7 mph N/A   Mostly Cloudy
6:35 PM 35.6 °F 25.5 °F 10.4 °F 35% 30.12 in 10.0 mi North 17.3 mph - N/A   Mostly Cloudy
6:55 PM 35.6 °F 27.1 °F 12.2 °F 38% 30.13 in 10.0 mi NNW 12.7 mph - N/A   Mostly Cloudy
7:15 PM 33.8 °F 26.4 °F 12.2 °F 41% 30.13 in 10.0 mi NNW 9.2 mph - N/A   Scattered Clouds
7:35 PM 33.8 °F 25.3 °F 12.2 °F 41% 30.13 in 10.0 mi NNW 11.5 mph 16.1 mph N/A   Clear
7:55 PM 33.8 °F 24.3 °F 12.2 °F 41% 30.13 in 10.0 mi NNW 13.8 mph 19.6 mph N/A   Clear
8:15 PM 32.0 °F 23.6 °F 12.2 °F 44% 30.13 in 10.0 mi NNW 10.4 mph - N/A   Clear
8:35 PM 32.0 °F 24.8 °F 14.0 °F 48% 30.14 in 10.0 mi North 8.1 mph - N/A   Scattered Clouds
8:55 PM 32.0 °F 25.6 °F 17.6 °F 55% 30.15 in 10.0 mi North 6.9 mph - N/A   Mostly Cloudy
9:14 PM 32.0 °F 24.2 °F 19.4 °F 60% 30.15 in 10.0 mi North 9.2 mph - N/A   Scattered Clouds
9:35 PM 32.0 °F 25.6 °F 19.4 °F 60% 30.16 in 10.0 mi North 6.9 mph - N/A   Scattered Clouds
9:55 PM 30.2 °F 21.9 °F 21.2 °F 69% 30.16 in 10.0 mi NNE 9.2 mph - N/A   Mostly Cloudy
10:14 PM 30.2 °F 23.4 °F 21.2 °F 69% 30.17 in 10.0 mi NNE 6.9 mph - N/A   Scattered Clouds
10:35 PM 28.4 °F 20.4 °F 21.2 °F 74% 30.17 in 10.0 mi North 8.1 mph - N/A   Mostly Cloudy
10:55 PM 28.4 °F 21.2 °F 21.2 °F 74% 30.17 in 10.0 mi North 6.9 mph - N/A   Scattered Clouds
11:14 PM 28.4 °F 22.2 °F 19.4 °F 69% 30.17 in 10.0 mi North 5.8 mph - N/A   Clear
11:35 PM 28.4 °F 22.2 °F 19.4 °F 69% 30.17 in 10.0 mi North 5.8 mph - N/A   Clear
11:55 PM 26.6 °F 20.0 °F 19.4 °F 74% 30.17 in 10.0 mi North 5.8 mph - N/A   Clear